Weather History for Bridgeport, CT

Change the Weather History Date:

Wednesday, February 26, 2014

  Actual Average Record
Temperature  
Mean Temperature 25 °F 34 °F  
Max Temperature 32 °F 42 °F 57 °F (2002)
Min Temperature 17 °F 27 °F 5 °F (1990)
Degree Days  
Heating Degree Days 40 31  
Month to date heating degree days 914 852  
Since 1 July heating degree days 3958 3828  
Cooling Degree Days 0 0  
Month to date cooling degree days 0 0  
Year to date cooling degree days 0 0  
Moisture  
Dew Point 12 °F    
Average Humidity 52    
Maximum Humidity 73    
Minimum Humidity 31    
Precipitation  
Precipitation 0.02 in 0.11 in 1.11 in (1979)
Month to date precipitation 4.20 2.55  
Year to date precipitation 6.98 5.65  
Snow  
Snow T in 0.30 in 5.00 in (2010)
Month to date snowfall 32.1 7.6  
Since 1 July snowfall 56.2 21.1  
Snow Depth 5.00 in    
Sea Level Pressure  
Sea Level Pressure 29.89 in    
Wind  
Wind Speed 8 mph (WNW)    
Max Wind Speed 22 mph    
Max Gust Speed 28 mph    
Visibility 8 miles    
Events Snow    
T = Trace of Precipitation, MM = Missing Value Source: NWS Daily Summary

Daily Weather History Graph

Daily Weather History Graph

Search for Another Location

Airport:

Trip Planner

Search our weather history database for the weather conditions in past years. The results will help you decide how hot, cold, wet, or windy it might be!

Date:

Astronomy

Feb. 26, 2014 Rise Set
Actual Time 6:31 AM EST 5:39 PM EST
Civil Twilight 6:03 AM EST 6:07 PM EST
Nautical Twilight 5:31 AM EST 6:39 PM EST
Astronomical Twilight 4:59 AM EST 7:11 PM EST
Moon 4:16 AM EST (2/26) 2:50 PM EST (2/26)
Length of Visible Light 12h 03m
Length of Day
11h 08m
Waning Crescent, 10% of the Moon is Illuminated
Feb 26
Waning Crescent
Mar 1
New
Mar 8
First Quarter
Mar 16
Full
Mar 23
Last Quarter

Hourly Weather History & Observations

Time (EST) Temp. Windchill Dew Point Humidity Pressure Visibility Wind Dir Wind Speed Gust Speed Precip Events Conditions
12:52 AM 21.9 °F 17.2 °F 7.0 °F 53% 29.98 in 10.0 mi West 3.5 mph - N/A   Clear
1:52 AM 19.0 °F - 10.0 °F 68% 29.97 in 10.0 mi Calm Calm - N/A   Clear
2:52 AM 19.9 °F - 10.0 °F 65% 29.96 in 10.0 mi Calm Calm - N/A   Clear
3:52 AM 19.9 °F - 12.0 °F 71% 29.94 in 10.0 mi Calm Calm - N/A   Clear
4:52 AM 21.0 °F 16.2 °F 14.0 °F 74% 29.92 in 10.0 mi NW 3.5 mph - N/A   Clear
5:52 AM 19.9 °F 14.9 °F 12.9 °F 74% 29.91 in 10.0 mi NNW 3.5 mph - N/A   Clear
6:52 AM 23.0 °F 14.7 °F 14.0 °F 68% 29.89 in 10.0 mi WSW 6.9 mph - N/A   Overcast
7:52 AM 26.1 °F 18.4 °F 12.9 °F 58% 29.91 in 10.0 mi West 6.9 mph - N/A   Overcast
8:52 AM 27.0 °F 19.5 °F 12.9 °F 56% 29.91 in 10.0 mi WSW 6.9 mph - N/A   Overcast
9:52 AM 28.0 °F 20.0 °F 14.0 °F 56% 29.91 in 10.0 mi West 8.1 mph - N/A   Overcast
10:46 AM 26.6 °F 16.8 °F 17.6 °F 69% 29.92 in 2.5 mi WSW 10.4 mph - 0.00 in Snow Light Snow
10:52 AM 25.0 °F 14.2 °F 18.0 °F 75% 29.92 in 1.2 mi West 11.5 mph - 0.00 in Snow Light Snow
10:57 AM 25.0 °F 14.2 °F 19.0 °F 78% 29.92 in 0.5 mi West 11.5 mph - 0.00 in Snow Snow
11:07 AM 25.0 °F 14.8 °F 19.9 °F 81% 29.91 in 0.2 mi West 10.4 mph - 0.01 in Snow Heavy Snow
11:15 AM 26.1 °F 16.8 °F 23.0 °F 88% 29.91 in 1.0 mi West 9.2 mph - 0.01 in Snow Light Snow
11:19 AM 26.1 °F 17.6 °F 23.0 °F 88% 29.91 in 3.0 mi West 8.1 mph - 0.02 in Snow Light Snow
11:36 AM 27.0 °F 19.5 °F 23.0 °F 85% 29.89 in 10.0 mi WSW 6.9 mph - 0.02 in   Overcast
11:52 AM 28.9 °F 21.1 °F 24.1 °F 82% 29.88 in 10.0 mi SW 8.1 mph - 0.02 in   Overcast
12:52 PM 32.0 °F 22.5 °F 19.0 °F 59% 29.83 in 10.0 mi SW 12.7 mph 21.9 mph N/A   Overcast
1:27 PM 27.0 °F 13.9 °F 19.0 °F 72% 29.83 in 1.8 mi NW 18.4 mph - 0.00 in Snow Light Snow
1:33 PM 26.1 °F 13.6 °F 19.0 °F 75% 29.83 in 1.0 mi NW 16.1 mph - 0.00 in Snow Light Snow
1:50 PM 26.6 °F 15.7 °F 21.2 °F 80% 29.82 in 3.0 mi WNW 12.7 mph - 0.00 in Snow Light Snow
1:52 PM 28.0 °F 18.1 °F 19.9 °F 72% 29.83 in 3.0 mi WNW 11.5 mph - 0.00 in Snow Light Snow
2:00 PM 28.9 °F 17.7 °F 19.9 °F 69% 29.82 in 9.0 mi WNW 15.0 mph - 0.00 in   Overcast
2:52 PM 30.9 °F 21.7 °F 12.0 °F 46% 29.81 in 10.0 mi West 11.5 mph 20.7 mph 0.00 in   Clear
3:52 PM 30.0 °F 18.3 °F 8.1 °F 40% 29.81 in 10.0 mi NW 17.3 mph 24.2 mph N/A   Partly Cloudy
4:52 PM 28.0 °F 16.5 °F 1.9 °F 33% 29.81 in 10.0 mi WNW 15.0 mph 25.3 mph N/A   Clear
5:52 PM 25.0 °F 13.6 °F -2.0 °F 31% 29.84 in 10.0 mi NW 12.7 mph - N/A   Clear
6:52 PM 23.0 °F 13.1 °F -2.0 °F 34% 29.85 in 10.0 mi WNW 9.2 mph - N/A   Clear
7:52 PM 21.9 °F 11.7 °F -2.9 °F 34% 29.86 in 10.0 mi WNW 9.2 mph - N/A   Clear
8:52 PM 21.0 °F 10.6 °F -2.9 °F 35% 29.88 in 10.0 mi NW 9.2 mph - N/A   Clear
9:52 PM 19.0 °F 10.0 °F -4.0 °F 36% 29.91 in 10.0 mi NNW 6.9 mph - N/A   Clear
10:52 PM 18.0 °F 11.1 °F -2.0 °F 41% 29.91 in 10.0 mi North 4.6 mph - N/A   Clear
11:52 PM 18.0 °F 6.9 °F -2.9 °F 40% 29.90 in 10.0 mi NNE 9.2 mph - N/A   Clear